Location: Diebersbach
(48.5163°N, 8.0558°E)
Time: 20:55:58
(UTC+00:00)

USA 229 - Pass Details

Date: 31 October 2021
Orbit: 946 x 1266 km, 63.4° (Epoch: 25 November)

Event Time Altitude Azimuth Distance (km) Brightness Sun altitude
Rises 17:43:34 0° 238° (WSW) 3,658 7.6 -16.0°
Reaches altitude 10° 17:46:08 10° 243° (WSW) 2,742 6.9 -16.4°
Maximum altitude 17:52:26 54° 321° (NW) 1,241 4.2 -17.5°
Enters shadow 17:59:03 11° 38° (NE) 2,894 5.6 -18.6°
